STARLINK-30397, 57771

Orbit data source: Space-Track

STARLINK-30397, 57771 is a payload satellite owned by SpaceX/Seattle (US) in LEO that was launched on Mon, 04 Sep 2023 UTC via an FALCON 9 launch vehicle from the Air Force Eastern Test Range (AFETR). Payload-class satellites include a variety of spacecraft equipped with specific instruments for various scientific and technological missions. These include communications satellites like Starlink; space stations such as the ISS; scientific satellites like the Hubble; Earth observation satellites from companies like Planet Labs, Umbra, and HawkEye 360; GPS; miniature CubeSats for education and research; and military/defense satellites.

Loading next visibility...
Identifier
57771, 2023-134A
Orbit
LEO
Country
Flag of USUS
Related business
Manufacturer
SpaceX/Seattle
Mission
Operational Commercial Communications
Bus & Motor
STARLINK V2M, Unknown motor
Mass
730 kg wet, ~700 kg dry
Launch date (UTC)
2023-09-04 (2 years ago)
Launch vehicle
FALCON 9
Launch site
Air Force Eastern Test Range (AFETR)
Object type
Payload
Rocket body
Debris
Shape & HBR
Box + 2 Pan, 17.7 m
Radar Cross Section
33.884 m², Large (>1 m²)

Expand to show TLE details & history
Last TLE update: 13 hours ago

TLE from 13 hours ago
0 STARLINK-30397
1 57771U 23134A   25346.91472523  .00000138  00000-0  25290-4 0  9997
2 57771  43.0013 309.4020 0000672 294.8191  65.2582 15.02532741126419
Epoch: 2025-12-12T21:57Z
TLE epoch observation values (Epoch: 2025-12-12T21:57:12.259Z)
Latitude
0.00001°
Longitude
-101.74858°
Altitude
558.673 km
Speed
7.584 km/s
True Right ascension
20h 37m 36s
True Declination
0° 00' 00"
Sunlit
Object was in daylight at epoch
Visualization orbit readout
Latitude
Unknown
Longitude
Unknown
Altitude
Unknown
Speed
Unknown
Apparent Right ascension
Unknown
Apparent Declination
Unknown
Sunlit
N/A
Visualization observer readout
Local Sidereal Time
09:18:49
Azimuth
Unknown
Elevation
Unknown
Doppler factor
Unknown
Orbital elements
Apogee altitude
561.48 km
Perigee altitude
560.547 km
Semi-major axis
6,939.15 km
Eccentricity
0.00007
Inclination
43.0013°
RAAN
309.402°
Arg. of periapsis
294.8191°
True anomaly
65.26519°
Mean anomaly
65.2582°
Eccentric anomaly
65.2617°
Mean motion
3.75477 °/min
Orbital period
95.88 mins
BSTAR
0.00002529
Loading maneuver chart data...
Computing Atmospheric mass density...
Loading historical data...
Loading historical data...
Loading historical data...
Loading historical data...
Loading historical data...
Loading historical data...
Loading historical data...

Documentation

Showing up to 5 results
|